When you browse on this site, cookies collect data to enhance your experience and personalize the content and advertising you see.
Visit our Privacy Policy to learn more. By continuing to use the site, you agree to this use of cookies and data.
  • In Deutschland
  • Länderverzeichnis
  • Für 7 Tage
  • Wassertemperatur
  • Wetterkarte
  • Widgets
  • user-avatar
    Anmelden

    Stündliche Wetter Bad Alexandersbad

    Heute, 25 Mai, Montag

    Zeit Temperatur Niederschläge Wind Luftdruck Luftfeuchtigkeit
    00:00 +7°C° 0.2 mm 3 m/S 716 mmHg 96%
    01:00 +7°C° 0 mm 2 m/S 715 mmHg 99%
    02:00 +8°C° 0.1 mm 2 m/S 716 mmHg 98%
    03:00 +8°C° 0.1 mm 3 m/S 716 mmHg 97%
    04:00 +8°C° 0.1 mm 3 m/S 716 mmHg 96%
    05:00 +8°C° 0.2 mm 3 m/S 716 mmHg 94%
    06:00 +8°C° 0.2 mm 4 m/S 716 mmHg 92%
    07:00 +8°C° 0 mm 4 m/S 716 mmHg 92%
    08:00 +9°C° 0.6 mm 5 m/S 716 mmHg 90%
    09:00 +9°C° 0.6 mm 5 m/S 716 mmHg 88%
    10:00 +10°C° 0.6 mm 6 m/S 716 mmHg 86%
    11:00 +11°C° 0.4 mm 6 m/S 716 mmHg 79%
    12:00 +13°C° 0.4 mm 6 m/S 716 mmHg 73%
    13:00 +14°C° 0.4 mm 6 m/S 716 mmHg 67%
    14:00 +13°C° 0.1 mm 6 m/S 716 mmHg 67%
    15:00 +11°C° 0.1 mm 6 m/S 716 mmHg 66%
    16:00 +12°C° 0.1 mm 5 m/S 716 mmHg 66%
    17:00 +10°C° 0.1 mm 5 m/S 716 mmHg 70%
    18:00 +10°C° 0.1 mm 4 m/S 717 mmHg 75%
    19:00 +9°C° 0.1 mm 3 m/S 717 mmHg 79%
    20:00 +8°C° 0 mm 2 m/S 717 mmHg 85%
    21:00 +7°C° 0 mm 2 m/S 717 mmHg 90%
    22:00 +6°C° 0 mm 1 m/S 718 mmHg 96%
    23:00 +7°C° 0 mm 1 m/S 718 mmHg 96%

    Morgen, 26 Mai, Dienstag

    Zeit Temperatur Niederschläge Wind Luftdruck Luftfeuchtigkeit
    00:00 +7°C° 0 mm 1 m/S 718 mmHg 95%
    01:00 +7°C° 0 mm 1 m/S 718 mmHg 95%
    02:00 +7°C° 0 mm 1 m/S 718 mmHg 95%
    03:00 +7°C° 0 mm 1 m/S 718 mmHg 95%
    04:00 +7°C° 0 mm 1 m/S 718 mmHg 96%
    05:00 +7°C° 0 mm 2 m/S 718 mmHg 93%
    06:00 +8°C° 0 mm 2 m/S 719 mmHg 89%
    07:00 +9°C° 0 mm 2 m/S 719 mmHg 86%
    08:00 +10°C° 0 mm 3 m/S 719 mmHg 81%
    09:00 +11°C° 0 mm 3 m/S 720 mmHg 75%
    10:00 +11°C° 0 mm 3 m/S 720 mmHg 69%
    11:00 +12°C° 0 mm 3 m/S 720 mmHg 65%
    12:00 +13°C° 0 mm 3 m/S 720 mmHg 61%
    13:00 +14°C° 0 mm 3 m/S 720 mmHg 57%
    14:00 +16°C° 0 mm 3 m/S 719 mmHg 56%
    15:00 +16°C° 0 mm 3 m/S 719 mmHg 54%
    16:00 +15°C° 0 mm 4 m/S 719 mmHg 53%
    17:00 +14°C° 0 mm 3 m/S 719 mmHg 60%
    18:00 +13°C° 0 mm 3 m/S 719 mmHg 66%
    19:00 +13°C° 0 mm 2 m/S 719 mmHg 73%
    20:00 +12°C° 0 mm 2 m/S 719 mmHg 80%
    21:00 +10°C° 0 mm 1 m/S 719 mmHg 87%
    22:00 +8°C° 0 mm 1 m/S 719 mmHg 95%
    23:00 +8°C° 0 mm 1 m/S 719 mmHg 95%

    übermorgen, 27 Mai, Mittwoch

    Zeit Temperatur Niederschläge Wind Luftdruck Luftfeuchtigkeit
    00:00 +7°C° 0 mm 1 m/S 719 mmHg 95%
    01:00 +6°C° 0 mm 0 m/S 718 mmHg 95%
    02:00 +6°C° 0 mm 0 m/S 718 mmHg 94%
    03:00 +5°C° 0 mm 0 m/S 718 mmHg 94%
    04:00 +5°C° 0 mm 0 m/S 718 mmHg 93%
    05:00 +7°C° 0 mm 0 m/S 718 mmHg 87%
    06:00 +9°C° 0 mm 0 m/S 719 mmHg 81%
    07:00 +11°C° 0 mm 0 m/S 719 mmHg 75%
    08:00 +13°C° 0 mm 0 m/S 719 mmHg 66%
    09:00 +16°C° 0 mm 1 m/S 719 mmHg 57%
    10:00 +19°C° 0 mm 1 m/S 719 mmHg 48%
    11:00 +19°C° 0 mm 1 m/S 719 mmHg 48%
    12:00 +20°C° 0 mm 1 m/S 719 mmHg 48%
    13:00 +19°C° 0 mm 2 m/S 718 mmHg 48%
    14:00 +19°C° 0.2 mm 2 m/S 718 mmHg 52%
    15:00 +18°C° 0.2 mm 2 m/S 718 mmHg 57%
    16:00 +18°C° 0.2 mm 2 m/S 717 mmHg 62%
    17:00 +16°C° 0.3 mm 2 m/S 717 mmHg 71%
    18:00 +15°C° 0.3 mm 2 m/S 717 mmHg 80%
    19:00 +13°C° 0.3 mm 2 m/S 716 mmHg 89%
    20:00 +12°C° 0 mm 2 m/S 716 mmHg 91%
    21:00 +10°C° 0 mm 2 m/S 716 mmHg 93%
    22:00 +10°C° 0 mm 1 m/S 716 mmHg 94%
    23:00 +9°C° 0 mm 2 m/S 716 mmHg 95%

    28 Mai, Donnerstag

    Zeit Temperatur Niederschläge Wind Luftdruck Luftfeuchtigkeit
    00:00 +9°C° 0 mm 2 m/S 716 mmHg 96%
    01:00 +9°C° 0 mm 2 m/S 716 mmHg 97%
    02:00 +8°C° 0 mm 2 m/S 716 mmHg 97%
    03:00 +8°C° 0 mm 2 m/S 716 mmHg 96%
    04:00 +7°C° 0 mm 3 m/S 716 mmHg 96%
    05:00 +7°C° 0 mm 3 m/S 716 mmHg 93%
    06:00 +7°C° 0 mm 3 m/S 716 mmHg 89%
    07:00 +8°C° 0 mm 3 m/S 716 mmHg 86%
    08:00 +9°C° 0 mm 3 m/S 716 mmHg 76%
    09:00 +10°C° 0 mm 3 m/S 717 mmHg 67%
    10:00 +12°C° 0 mm 3 m/S 717 mmHg 57%
    11:00 +12°C° 0 mm 3 m/S 716 mmHg 52%
    12:00 +13°C° 0 mm 4 m/S 716 mmHg 47%
    13:00 +14°C° 0 mm 4 m/S 716 mmHg 41%
    14:00 +14°C° 0 mm 4 m/S 715 mmHg 43%
    15:00 +14°C° 0 mm 4 m/S 715 mmHg 45%
    16:00 +14°C° 0 mm 4 m/S 715 mmHg 46%
    17:00 +13°C° 0 mm 4 m/S 714 mmHg 53%
    18:00 +12°C° 0 mm 3 m/S 714 mmHg 60%
    19:00 +10°C° 0 mm 3 m/S 714 mmHg 66%
    20:00 +9°C° 0 mm 2 m/S 714 mmHg 75%
    21:00 +7°C° 0 mm 2 m/S 714 mmHg 83%
    22:00 +6°C° 0 mm 1 m/S 714 mmHg 92%
    23:00 +6°C° 0 mm 1 m/S 714 mmHg 93%

    29 Mai, Freitag

    Zeit Temperatur Niederschläge Wind Luftdruck Luftfeuchtigkeit
    00:00 +5°C° 0 mm 1 m/S 713 mmHg 95%
    01:00 +5°C° 0 mm 1 m/S 713 mmHg 96%
    02:00 +5°C° 0 mm 1 m/S 713 mmHg 96%
    03:00 +5°C° 0 mm 1 m/S 713 mmHg 97%
    04:00 +4°C° 0 mm 1 m/S 712 mmHg 97%
    05:00 +6°C° 0 mm 1 m/S 712 mmHg 93%
    06:00 +7°C° 0 mm 1 m/S 712 mmHg 88%
    07:00 +8°C° 0 mm 2 m/S 712 mmHg 84%
    08:00 +9°C° 0.1 mm 2 m/S 712 mmHg 76%
    09:00 +10°C° 0.1 mm 3 m/S 712 mmHg 67%
    10:00 +11°C° 0.1 mm 3 m/S 712 mmHg 59%
    11:00 +12°C° 0 mm 3 m/S 711 mmHg 56%
    12:00 +12°C° 0 mm 3 m/S 711 mmHg 53%
    13:00 +13°C° 0 mm 3 m/S 710 mmHg 50%
    14:00 +12°C° 0.2 mm 4 m/S 710 mmHg 58%
    15:00 +10°C° 0.2 mm 5 m/S 710 mmHg 66%
    16:00 +9°C° 0.2 mm 5 m/S 709 mmHg 74%
    17:00 +8°C° 0.1 mm 4 m/S 710 mmHg 77%
    18:00 +9°C° 0.1 mm 3 m/S 710 mmHg 80%
    19:00 +8°C° 0.1 mm 2 m/S 710 mmHg 83%
    20:00 +7°C° 0 mm 2 m/S 710 mmHg 88%
    21:00 +5°C° 0 mm 2 m/S 710 mmHg 92%
    22:00 +4°C° 0 mm 2 m/S 710 mmHg 96%
    23:00 +4°C° 0 mm 1 m/S 711 mmHg 96%

    30 Mai, Samstag

    Zeit Temperatur Niederschläge Wind Luftdruck Luftfeuchtigkeit
    00:00 +4°C° 0 mm 1 m/S 711 mmHg 96%
    01:00 +3°C° 0 mm 1 m/S 711 mmHg 96%
    02:00 +3°C° 0 mm 1 m/S 711 mmHg 96%
    03:00 +3°C° 0 mm 1 m/S 711 mmHg 96%
    04:00 +3°C° 0 mm 1 m/S 711 mmHg 96%
    05:00 +4°C° 0.2 mm 1 m/S 711 mmHg 95%
    06:00 +4°C° 0.2 mm 2 m/S 711 mmHg 94%
    07:00 +5°C° 0.2 mm 2 m/S 711 mmHg 93%
    08:00 +5°C° 0.4 mm 2 m/S 711 mmHg 92%
    09:00 +6°C° 0.4 mm 2 m/S 711 mmHg 92%
    10:00 +6°C° 0.4 mm 2 m/S 711 mmHg 92%
    11:00 +8°C° 0.2 mm 2 m/S 711 mmHg 89%
    12:00 +9°C° 0.2 mm 2 m/S 711 mmHg 86%
    13:00 +10°C° 0.2 mm 2 m/S 711 mmHg 83%
    14:00 +11°C° 0.6 mm 3 m/S 711 mmHg 83%
    15:00 +11°C° 0.6 mm 3 m/S 710 mmHg 82%
    16:00 +12°C° 0.6 mm 4 m/S 710 mmHg 82%
    17:00 +11°C° 0.4 mm 3 m/S 710 mmHg 85%
    18:00 +11°C° 0.4 mm 3 m/S 710 mmHg 87%
    19:00 +10°C° 0.4 mm 2 m/S 709 mmHg 90%
    20:00 +9°C° 0 mm 2 m/S 709 mmHg 92%
    21:00 +8°C° 0 mm 2 m/S 709 mmHg 93%
    22:00 +7°C° 0 mm 1 m/S 709 mmHg 95%
    23:00 +7°C° 0 mm 1 m/S 709 mmHg 95%
    Mehr zeigen